{"data":{"norad_id":58753,"epoch":"2026-09-22T21:47:14.040096Z","epoch_age_seconds":41940,"freshness":"FRESH","line1":"1 58753U 24007A   26265.90780139  .00001859  00000+0  12607-3 0  9990","line2":"2 58753  28.9996 297.6972 0009646 158.7416 201.3585 15.02276399148272","mean_motion":15.02276399,"eccentricity":0.0009646,"inclination_deg":28.9996,"raan_deg":297.6972,"arg_perigee_deg":158.7416,"mean_anomaly_deg":201.3585,"bstar":0.00012607,"rev_number":14827,"period_min":95.854531227312,"perigee_km":553.18629128724,"apogee_km":566.57111117806,"semimajor_km":6938.0157012326,"source":"CELESTRAK","updated_at":"2026-09-23T09:00:18.960518Z"}}